Location: Newark
(9.1167°S, 159.8667°E)
Time: 04:19:32
(UTC+00:00)

Envisat - Pass Details

Date: 25 September 2019
Orbit: 764 x 766 km, 98.1° (Epoch: 19 October)

Event Time Altitude Azimuth Distance (km) Brightness Sun altitude
Rises 07:40:51 0° 160° (SSE) 3,239 6.1 -6.9°
Reaches altitude 10° 07:43:13 10° 155° (SSE) 2,309 5.3 -7.5°
Maximum altitude 07:48:10 52° 79° (E) 952 3.1 -8.7°
Drops below altitude 10° 07:53:04 10° 3° (N) 2,292 5.4 -9.9°
Sets 07:55:24 0° 358° (N) 3,214 6.2 -10.5°
